Cloud_Cover
0 0 0 0 0 0 0 0 2 100 100 100 100 100 100 100 100 100 100 100 100 100 100 100 100 100 100 100 100 100 100 100 100 100 100 100 100 100 100 42 18 42 94
5 1 0 0 0 0 0 0 0 5 100 100 100 100 100 100 100 100 100 100 100 100 100 100 100 100 100 100 100 100 100 100 100 100 100 100 91 100 100 100 100 100 72
5 5 5 1 0 0 2 0 0 4 23 100 100 100 100 100 100 100 100 100 100 100 100 100 100 100 100 100 100 100 100 100 100 100 100 100 100 76 97 84 94 66 5
5 5 5 5 5 4 5 5 5 4 0 63 100 100 100 100 100 100 100 100 100 100 100 100 100 100 100 100 100 100 100 100 100 100 100 100 73 99 99 69 89 72 32
23 51 86 97 97 82 66 36 24 59 5 4 19 99 100 100 100 100 100 100 100 100 100 100 100 100 100 100 100 100 100 100 100 100 100 100 100 100 100 100 81 35 68
100 100 100 100 57 31 33 11 50 69 84 30 5 2 54 100 100 100 100 100 100 100 100 100 100 100 100 100 100 100 100 100 100 100 100 100 100 100 100 100 99 100 70
100 100 100 97 87 19 5 5 92 87 100 94 95 96 8 50 100 100 100 100 100 100 100 100 100 100 100 100 100 100 100 100 100 100 100 100 100 100 100 100 64 58 82
100 100 100 100 21 23 5 5 53 100 100 100 100 100 100 50 44 100 100 100 100 100 100 100 100 100 100 100 100 100 100 100 100 100 100 100 100 100 100 100 94 78 87
100 100 100 100 100 94 100 50 7 78 81 100 100 100 100 100 99 78 100 100 100 100 100 100 100 100 100 100 100 100 100 100 100 100 100 100 100 100 100 100 100 89 87
100 100 100 100 100 96 100 70 77 92 100 73 99 100 99 100 100 100 94 100 100 100 100 100 100 100 100 100 100 100 100 100 100 100 100 100 100 100 100 100 100 100 100
100 100 100 100 100 98 87 98 97 66 85 100 98 69 84 72 48 78 100 100 100 100 100 100 100 100 100 100 100 100 100 100 100 100 100 100 100 100 100 100 100 100 100
100 100 100 100 100 100 100 99 100 100 98 62 86 64 84 25 9 6 5 85 99 94 100 100 100 100 100 100 100 100 100 100 100 100 100 100 100 100 100 100 100 100 100
100 100 100 100 100 100 100 100 100 82 93 100 98 80 78 92 72 98 55 5 5 5 5 92 97 100 100 100 100 100 100 100 100 100 100 100 100 100 100 100 100 100 100
100 100 100 100 100 100 100 99 100 100 96 82 100 100 66 60 56 64 78 97 73 8 5 5 5 77 100 100 100 100 100 100 100 100 100 100 100 100 100 100 100 100 100
100 100 100 100 100 87 81 66 59 84 91 82 66 66 81 63 65 76 82 62 64 76 67 9 5 5 72 100 100 100 100 100 100 100 100 100 100 100 100 100 100 100 100
92 94 95 99 100 99 83 6 33 69 11 5 12 58 46 71 67 99 98 81 82 79 96 96 85 62 58 5 72 100 100 100 100 100 100 100 100 100 100 100 100 100 100
100 100 100 99 87 46 11 5 23 31 5 5 5 5 5 6 7 72 83 72 71 66 62 70 85 83 76 58 8 5 54 100 100 100 100 100 100 100 100 100 100 100 100
100 96 80 47 5 5 3 4 5 5 5 5 5 5 7 5 5 50 78 88 81 70 69 40 6 70 95 80 69 40 5 5 11 14 27 31 81 100 100 100 100 100 100
3 3 1 1 1 0 2 5 5 5 5 5 5 9 62 64 16 5 5 62 94 75 63 59 55 47 58 12 40 52 5 5 7 5 5 5 5 5 20 14 75 65 70
54 13 3 0 2 1 5 5 5 5 5 4 5 5 5 72 33 5 5 55 95 90 74 38 61 77 26 12 13 5 5 5 51 8 5 5 5 5 26 5 5 56 64
43 61 54 23 9 2 5 5 5 5 2 5 0 1 5 10 5 10 58 60 55 78 86 97 23 55 50 56 6 68 15 5 5 5 5 5 5 5 50 59 5 5 38
5 5 8 36 50 55 17 5 5 1 5 5 5 5 5 5 5 5 5 5 52 74 25 71 15 30 6 10 6 60 80 14 5 5 5 5 5 5 68 72 5 63 88
12 5 5 5 5 6 9 9 29 53 19 5 5 5 5 5 5 5 5 43 55 94 63 54 12 5 5 34 5 8 96 88 71 65 95 35 5 79 85 6 5 5 5
82 81 5 5 5 5 5 5 5 5 5 5 5 5 5 12 5 5 5 66 72 78 50 68 78 10 5 5 5 7 5 42 96 12 59 49 22 51 72 68 37 6 14
66 34 5 5 5 5 5 5 5 5 11 6 5 5 5 5 5 5 5 44 17 65 68 26 7 45 60 5 5 48 33 20 13 98 96 100 98 100 98 81 80 78 60
33 5 5 6 5 5 5 5 5 5 53 96 37 8 82 22 40 33 49 7 82 100 100 100 100 88 60 87 97 96 100 99 74 98 97 98 99 94 87 67 62 60 80